Powrót do katalogu

DELTA 1 DEB

AktywnySSO
NORAD 42084·DEBRIS·🇺🇸 United States

Wystrzelony Dec 15, 1968 z Vandenberg Space Force Base

Loading…

Następne Przeloty (najbliższe 24 godziny)

TLE

ŚwieżeSource: Space-Track

Epoka: Sep 11, 2026, 08:49 UTC

1 42084U 68114L   26254.36793290  .00000012  00000-0  28199-3 0  9991
2 42084 101.7092 302.5711 0337952  24.5853 337.0923 12.54103513310573

Śledź DELTA 1 DEB w czasie rzeczywistym z AllMySat

Download on the App Store